Tracking 25620 objects as of 18-May-2022
HD Live streaming from Space Station
objects crossing your sky now

SAUDISAT 3

Track SAUDISAT 3 now!
10-day predictions
SAUDISAT 3 is classified as:


NORAD ID: 31118
Int'l Code: 2007-012B
Perigee: 660.7 km
Apogee: 680.1 km
Inclination: 98.0 °
Period: 98.0 minutes
Semi major axis: 7041 km
RCS: 0.633 m2 (medium)
Launch date: April 17, 2007
Source: Saudi Arabia (SAUD)
Launch site: TYURATAM MISSILE AND SPACE COMPLEX (TTMTR)
aabbcc
Your satellite tracking list
Your tracking list is empty




NASA's NSSDC Master Catalog

Two Line Element Set (TLE):
1 31118U 07012B   22138.13817952  .00000417  00000-0  78687-4 0  9998
2 31118  97.9675  85.9198 0013834 294.9767  65.0001 14.69312489808704
Source of the keplerian elements: AFSPC